Location: Ohaba
(45.8667°N, 22.4500°E)
Time: 15:21:43
(UTC+00:00)

Daily predictions for brighter satellites

Satellite Brightness Start Highest point End
(mag) Time Altitude Azimuth Time Altitude Azimuth Time Altitude Azimuth
COSMOS 2406 3.6 18:52:22 10° SSW 18:58:07 75° WNW 19:03:53 10° NNE
CZ-4C R/B 3.5 18:56:09 10° NNE 19:00:15 57° E 19:04:17 10° S
ARGOS Delta rocket 3.7 18:59:24 10° SSE 19:03:48 64° ENE 19:08:09 10° N
Cosmos 1553 Rocket 4.1 19:00:15 10° N 19:06:28 90° ENE 19:12:45 10° S
Cosmos 2278 3.8 19:02:19 10° NNW 19:08:04 78° ENE 19:13:46 10° SSE
Cosmos 1674 3.4 19:05:09 10° SSW 19:08:31 50° WNW 19:11:55 10° N
Cosmos 468 Rocket 4.1 19:04:44 10° NNW 19:09:58 77° WSW 19:15:07 10° SSE
S3M 4.3 19:04:02 10° N 19:10:17 54° ENE 19:16:25 10° SSE
SL-4 R/B 3.4 19:09:37 10° WNW 19:13:09 37° N 19:16:54 10° ENE
Ariane Rocket 3.7 19:09:06 10° SE 19:13:50 41° ENE 19:18:36 10° N
BREEZE-M DEB (TANK) 4.3 19:11:36 10° W 19:15:45 79° SSW 19:29:24 10° ESE
BREEZE-M DEB (TANK) 2.1 19:13:43 10° WSW 19:15:55 69° SSE 19:19:21 10° ENE
Meteor 1-13 Rocket 4.3 19:12:00 10° S 19:17:46 73° E 19:23:26 10° NNE
Cosmos 1515 Rocket 4.4 19:14:11 10° SSW 19:18:23 51° WNW 19:22:39 10° N
Okean-O 3.2 19:15:04 10° S 19:19:23 56° W 19:23:45 10° NNW
Cosmos 2219 Rocket 3.8 19:15:06 10° N 19:19:40 24° NE 19:24:14 10° ESE
Cosmos 2266 Rocket 4.2 19:13:58 10° S 19:20:09 61° E 19:26:27 10° NNE
Cosmos 1300 3.8 19:17:31 10° NNE 19:20:37 27° ENE 19:23:20 12° SE
SL-27 R/B 3.4 19:23:03 13° SE 19:24:31 19° ESE 19:26:34 10° NE
Cosmos 1400 Rocket 2.9 19:20:45 10° S 19:24:32 52° E 19:28:17 10° NNE
Cosmos 2237 4.3 19:18:54 10° NNW 19:24:41 88° WSW 19:30:18 11° SSE
Cosmos 1441 Rocket 3.3 19:21:37 10° NNW 19:25:13 70° W 19:28:50 10° S
Cosmos 1655 Rocket 4.4 19:19:24 10° SSE 19:25:27 46° E 19:31:31 10° NNE
Cosmos 540 Rocket 4.2 19:21:03 10° NNW 19:26:02 51° WSW 19:30:58 10° S
Cosmos 1850 Rocket 4.4 19:22:22 10° S 19:27:18 44° ESE 19:32:14 10° NNE
Cosmos 1356 Rocket 4.3 19:23:41 10° SSE 19:27:21 32° E 19:31:06 10° NNE
USA 245 3.3 19:24:51 11° SSE 19:28:10 70° ENE 19:32:34 10° N
ATLAS CENTAUR R/B 1.4 19:27:21 10° S 19:30:35 37° ESE 19:33:55 10° NE
Cosmos 1908 3.6 19:27:25 10° NNW 19:30:57 57° W 19:34:29 10° S
MOS 1 Rocket 3.8 19:31:12 11° SSE 19:36:16 64° ENE 19:41:30 10° N
Cosmos 1869 Rocket 3.7 19:32:08 10° NNW 19:36:36 79° W 19:41:03 10° S
Cosmos 2228 Rocket 3.6 19:32:28 10° SSE 19:36:43 45° E 19:41:05 10° NNE
Okean O Rocket 4.0 19:35:31 10° SW 19:38:45 20° W 19:42:00 10° NW
Cosmos 968 Rocket 4.0 19:36:21 10° S 19:41:06 40° ESE 19:45:55 10° NE
IRS-1C Rocket 4.4 19:35:59 10° S 19:41:12 65° WSW 19:46:26 10° NNW
Meteor 1-4 Rocket 3.9 19:41:08 14° ESE 19:41:57 16° E 19:43:51 10° NE
SPOT 3 Rocket 3.6 19:37:40 13° SSE 19:42:14 67° ENE 19:47:22 10° N
Cosmos 1953 4.2 19:41:15 10° NNE 19:43:39 16° ENE 19:45:44 11° ESE
SeaSat 1 2.5 19:39:21 13° SSE 19:43:43 82° WSW 19:48:40 10° NNW
Cosmos 2360 Rocket 2.5 19:39:33 10° NNW 19:45:11 60° ENE 19:49:45 16° SE
Cosmos 1741 Rocket 4.0 19:42:30 10° S 19:47:42 63° ESE 19:52:57 10° NNE
In-Cosmos 22 4.5 19:42:30 10° SSW 19:48:07 72° WNW 19:53:38 10° N
SPOT 5 3.8 19:46:38 10° SSW 19:50:39 39° W 19:54:47 10° NNW
EXPRESS MD2 3.5 19:50:36 10° W 19:53:18 40° NNW 19:55:24 10° ENE
USA 234 3.2 19:48:42 10° NE 19:55:17 84° SE 20:01:50 10° SW
Meteor 1-23 Rocket 4.3 19:50:29 10° S 19:56:09 89° ESE 20:01:56 10° N
BlueWalker 3 3.8 19:57:39 14° ESE 19:57:39 14° ESE 19:58:40 10° E
SL-16 R/B 2.6 19:51:26 10° NNW 19:57:00 58° WSW 20:01:48 14° S
Landsat 4 3.4 19:56:28 18° S 19:58:53 82° WSW 20:02:20 10° NNW
Cosmos 2333 Rocket 2.3 19:55:07 10° NNW 20:00:53 73° ENE 20:05:09 19° SE
Landsat 5 3.7 20:01:20 10° NNE 20:05:17 50° E 20:07:59 19° S
SL-14 R/B 3.2 20:04:14 12° SSW 20:07:43 78° W 20:11:32 10° N
Cosmos 2315 Rocket 4.1 20:01:22 10° N 20:07:47 85° W 20:13:14 15° S
Cosmos 1862 Rocket 3.5 20:05:38 16° S 20:09:03 71° E 20:13:29 10° NNE
Okean 3 3.5 20:09:59 20° S 20:12:41 61° E 20:16:48 10° NNE
Atlas Centaur 2 4.2 20:07:03 10° WSW 20:13:03 23° SSW 20:16:21 18° SSE
Cosmos 1833 4.2 20:08:02 10° SSW 20:13:37 67° ESE 20:19:12 10° NNE
Cosmos 1346 Rocket 2.7 20:09:55 10° NNW 20:13:48 79° W 20:16:10 22° S
ERS-1 Rocket 4.0 20:10:03 10° SSW 20:14:46 41° W 20:19:32 10° NNW
Cosmos 841 Rocket 4.5 20:13:18 10° NW 20:18:14 41° WSW 20:22:24 14° S
Cosmos 2237 Rocket 4.4 20:16:11 10° N 20:19:41 16° NE 20:23:09 10° E
Cosmos 1455 3.1 20:16:56 10° N 20:20:06 31° ENE 20:21:19 24° ESE
Meteor 2-20 4.5 20:17:20 10° N 20:23:33 89° W 20:28:01 20° S
Meteor 1-16 Rocket 4.4 20:18:02 10° N 20:23:58 75° ENE 20:27:52 22° SSE
RESURS DK-1 3.5 20:21:01 10° NW 20:24:43 34° WSW 20:27:05 18° SSW
H-2A R/B 4.5 20:22:42 13° E 20:25:02 18° ENE 20:27:58 10° NNE
Terra 3.0 20:21:54 11° SSW 20:25:58 36° W 20:30:19 10° NNW
SJ 16-02 1.2 20:23:40 17° SSW 20:26:55 78° ESE 20:31:15 10° NNE
Spot 2 Rocket 4.4 20:23:44 13° SSW 20:27:56 42° W 20:32:47 10° NNW
Cosmos 1707 Rocket 4.1 20:25:27 12° SSW 20:29:34 59° WNW 20:33:58 10° N
Aureole 3 3.5 20:27:07 21° S 20:29:43 87° WNW 20:34:35 10° N
CZ-2C R/B 4.5 20:25:50 10° NNE 20:29:51 33° E 20:31:21 26° SE
Cosmos 2333 4.2 20:24:03 10° NNW 20:29:52 88° WSW 20:33:27 24° SSE
Cosmos 2322 Rocket 3.0 20:33:59 10° NW 20:39:19 42° WSW 20:42:59 19° SSW
ATLAS 2AS CENTAUR R/B 2.8 20:33:23 10° NW 20:40:08 67° WSW 20:44:10 25° SSE
Cosmos 839 Rocket 4.0 20:34:12 10° NW 20:41:07 88° SW 20:44:53 26° SSE
BREEZE-M DEB (TANK) 4.3 20:38:16 10° W 20:42:46 76° N 21:02:18 10° ENE
Cosmos 2297 Rocket 3.8 20:45:31 16° ESE 20:46:28 17° E 20:49:58 10° ENE
ARIANE 5 R/B 3.0 20:45:49 30° SE 20:47:39 51° ENE 20:51:51 10° N
Cosmos 1733 Rocket 4.3 20:46:07 10° NNW 20:50:08 35° W 20:53:00 17° SSW
Cosmos 1241 Rocket 4.4 20:45:07 10° SSW 20:51:18 89° NW 20:57:35 10° NE
USA 281 3.4 20:47:30 23° SE 20:51:44 67° ENE 20:58:17 10° NNW
SL-4 R/B 3.2 20:48:44 10° WNW 20:52:31 42° NNE 20:56:30 10° E
Cosmos 1745 Rocket 4.4 20:50:21 26° SSE 20:53:39 50° E 20:59:46 10° NNE
Okean 1-7 3.1 20:53:31 26° SSW 20:55:53 74° W 21:00:12 10° N
Nadezhda 1 Rocket 4.1 20:56:23 10° N 21:02:40 67° E 21:05:54 29° SSE
Cosmos 2219 Rocket 2.3 20:58:29 10° NNW 21:04:07 66° WSW 21:06:53 31° S
Cosmos 1908 Rocket 3.5 21:00:27 10° NNW 21:04:48 76° W 21:06:27 37° S
GP-B 3.0 21:00:28 10° N 21:04:54 77° E 21:06:32 38° S
COSMOS 2428 2.9 21:00:17 10° NNW 21:05:57 65° ENE 21:08:56 29° SE
Cosmos 1386 Rocket 4.5 21:02:27 28° S 21:05:58 72° E 21:12:09 10° NNE
BREEZE-M DEB (TANK) 2.9 21:04:44 10° W 21:06:54 41° SSW 21:06:54 41° SSW
Cosmos 1782 Rocket 3.7 21:03:24 10° N 21:07:41 60° ENE 21:09:04 39° SE
ATLAS CENTAUR R/B 3.6 21:05:32 10° W 21:08:21 22° NW 21:11:15 10° NNE
Okean 2 4.0 21:08:12 25° SW 21:10:14 50° WNW 21:14:10 10° N
Meteor 1-4 Rocket 4.3 21:13:07 15° WSW 21:14:36 22° WNW 21:17:02 10° NNW
Cosmos 1953 3.1 21:16:04 10° NNW 21:19:41 40° W 21:20:51 31° SW
Cosmos 1315 Rocket 4.0 21:17:28 20° SW 21:19:44 38° WNW 21:23:30 10° N
H-2A R/B 4.2 21:20:06 10° ENE 21:22:00 13° E 21:22:19 13° E
Cosmos 1570 Rocket 4.0 21:17:13 10° NNW 21:22:35 79° WSW 21:24:46 37° S
PSLV R/B 3.7 21:20:37 10° NNE 21:24:38 89° WNW 21:25:44 47° SSW
Cosmos 1300 Rocket 3.5 21:20:40 10° N 21:25:00 76° E 21:26:10 47° SSE
Cosmos 304 Rocket 4.4 21:24:56 34° SE 21:25:46 37° ESE 21:30:07 10° NE
Cosmos 158 Rocket 3.9 21:23:08 10° NNW 21:28:28 84° ENE 21:30:29 39° SSE
Cosmos 2360 Rocket 3.9 21:24:25 10° NW 21:28:42 22° W 21:31:30 16° SW
Cosmos 1242 Rocket 3.1 21:29:31 33° W 21:29:41 33° WNW 21:32:15 10° N
BlueWalker 3 1.8 21:31:50 24° WSW 21:33:57 85° NNW 21:37:43 10° ENE
Cosmos 405 Rocket 3.9 21:33:47 10° N 21:37:07 29° ENE 21:37:51 27° E
USA 234 4.4 21:31:52 10° NE 21:38:00 44° NNW 21:44:07 10° W
COSMOS 2455 2.8 21:35:30 33° S 21:38:16 67° ESE 21:44:16 10° NE
CENTAUR R/B 3.8 21:37:35 19° ESE 21:38:17 19° ESE 21:42:38 10° ENE
ALOS 2 2.9 21:37:03 40° SE 21:38:21 58° ENE 21:42:40 10° N
NOSS 0 Rocket 3.9 21:36:28 10° NNW 21:42:44 84° ENE 21:45:42 34° SSE
Cosmos 2333 Rocket 4.1 21:40:40 10° WNW 21:44:31 19° W 21:47:09 14° SW
Cosmos 773 Rocket 4.0 21:44:53 10° NNW 21:50:02 71° ENE 21:51:58 38° SE
Cosmos 836 Rocket 4.5 21:45:49 10° NNW 21:51:01 72° WSW 21:52:43 43° S
Spot 2 4.4 21:50:57 42° SSE 21:52:43 83° ENE 21:57:47 10° NNW
Cosmos 1709 Rocket 4.0 21:49:59 33° S 21:53:05 87° W 21:59:29 10° N
Cosmos 1455 4.2 21:52:01 10° NW 21:54:16 16° W 21:55:03 15° WSW
Cosmos 1408 2.9 21:55:12 44° WNW 21:55:12 44° WNW 21:57:59 10° N
Cosmos 2208 Rocket 4.3 21:52:06 10° NNW 21:57:08 52° WSW 21:58:40 38° SSW
SL-16 R/B 4.0 21:52:54 10° N 21:57:35 25° NE 22:02:14 10° ESE
H-2A R/B 3.0 21:58:41 42° SW 21:59:36 50° W 22:03:46 10° NNW
CZ-4C R/B 1.7 21:58:28 44° SSW 21:59:57 80° SE 22:05:29 10° NE
Cosmos 1703 2.9 22:00:20 72° SSW 22:00:40 83° W 22:04:22 10° N
Cosmos 1892 3.7 22:03:36 31° E 22:03:36 31° E 22:06:37 10° NNE
Cosmos 2242 Rocket 3.9 22:02:21 39° SW 22:03:48 60° WNW 22:08:21 10° N
Cosmos 2237 Rocket 2.2 21:59:04 10° NNW 22:04:46 75° ENE 22:07:12 35° SE
Sich 1 Rocket 4.2 22:00:36 10° N 22:04:50 45° ENE 22:05:58 37° ESE
Cosmos 1777 Rocket 4.1 22:03:24 43° SSE 22:04:56 63° ESE 22:10:09 10° NNE
Cosmos 1503 Rocket 4.0 22:03:12 43° S 22:04:58 76° ESE 22:10:17 10° NNE
SJ 16-02 4.1 22:03:42 10° W 22:05:50 13° NW 22:08:00 10° NNW
Cosmos 2227 Rocket 2.8 22:08:29 35° SE 22:09:53 41° ESE 22:15:10 10° NE
Meteor 1-24 Rocket 3.7 22:10:17 38° SSW 22:12:36 87° W 22:18:17 10° N
GEOS 3 Rocket 4.3 22:10:30 10° NE 22:15:11 35° ESE 22:15:46 34° SE
Cosmos 371 Rocket 3.6 22:15:49 35° SW 22:17:42 62° WNW 22:22:29 10° NNE
Cosmos 1980 3.6 22:12:17 10° NNW 22:17:59 83° WSW 22:20:05 41° SSE
NOSS 3-2 (A) 4.3 22:25:02 25° ESE 22:25:42 25° ESE 22:30:21 10° ENE
Cosmos 2297 Rocket 2.2 22:27:16 34° SW 22:29:48 77° WNW 22:35:29 10° NNE
Cosmos 1825 2.0 22:31:23 63° E 22:31:23 63° E 22:34:40 10° NNE
SL-4 R/B 1.9 22:27:25 10° WNW 22:31:30 72° SSW 22:31:56 65° SSE
Cosmos 2219 4.0 22:32:08 30° SE 22:33:34 35° ESE 22:38:36 10° NE
Aureole 1 Rocket 4.5 22:35:45 20° E 22:35:54 20° E 22:38:56 10° NE
USA 281 4.5 22:34:22 21° SW 22:36:41 26° WSW 22:42:03 10° NW
Okean 1 Rocket 3.2 22:33:35 10° N 22:37:55 65° E 22:38:57 48° SE
PSLV R/B 3.8 22:38:37 10° N 22:42:47 60° WNW 22:43:45 46° SW
Cosmos 1354 Rocket 4.2 22:44:52 35° SW 22:47:02 66° WNW 22:52:20 10° NNE
COSMOS 2428 4.2 22:45:32 10° NW 22:49:39 21° W 22:50:54 19° WSW
BREEZE-M DEB (TANK) 3.1 22:52:48 10° NW 22:54:50 28° NNE 22:54:55 28° NNE
Cosmos 2084 Rocket 3.7 22:55:25 38° WSW 22:56:52 61° NW 23:00:59 10° NE
Cosmos 2181 Rocket 4.3 22:51:08 10° NNW 22:57:06 52° W 22:59:29 34° SW
H-2A R/B 2.2 22:53:57 10° N 22:58:10 64° WNW 22:59:07 48° SW
Cosmos 1975 Rocket 4.1 23:00:38 29° SE 23:01:50 35° E 23:05:50 10° NNE
Cosmos 2263 Rocket 2.8 23:00:27 32° SSE 23:02:11 41° ESE 23:07:23 10° NE
Cosmos 292 Rocket 4.3 23:01:50 37° SE 23:03:00 45° ESE 23:07:34 10° NNE
NOSS 8 (A) 4.4 23:03:23 10° NW 23:06:11 69° W 23:06:11 69° W
Cosmos 2074 Rocket 4.1 23:05:16 35° SSW 23:07:59 68° W 23:14:12 10° N
Cosmos 332 Rocket 4.3 23:09:40 33° WSW 23:11:32 53° WNW 23:16:21 10° NNE
Cosmos 405 Rocket 4.4 23:09:14 10° NW 23:12:03 20° W 23:12:07 20° W
BlueWalker 3 3.8 23:09:10 10° WNW 23:12:30 29° NNW 23:15:50 10° NE
Cosmos 1455 Rocket 3.2 23:10:02 10° N 23:14:29 67° E 23:15:56 40° SSE
Okean 2 Rocket 4.1 23:13:17 10° NNW 23:17:15 32° W 23:18:04 29° WSW
Cosmos 1818 4.4 23:16:57 10° NNW 23:22:19 50° NE 23:27:37 10° ESE
COSMOS 2455 4.5 23:19:31 10° W 23:24:41 29° NW 23:29:53 10° NNE
Cosmos 1025 Rocket 3.1 23:25:42 46° SW 23:26:48 63° W 23:31:06 10° N
CENTAUR R/B 2.5 23:24:42 30° SW 23:27:45 79° NW 23:34:52 10° NE
Helios 1A Rocket 3.1 23:26:49 37° SE 23:28:02 58° ENE 23:31:47 10° N
Cosmos 990 Rocket 4.2 23:28:09 34° SW 23:30:14 62° WNW 23:35:21 10° NNE
Cosmos 1461 3.5 23:31:16 36° SE 23:31:42 37° ESE 23:35:20 10° NE
TIMED 4.4 23:33:37 48° SSW 23:34:48 88° WNW 23:39:08 10° NNE
In-Cosmos 22 Rocket 4.3 23:32:43 33° S 23:35:23 76° E 23:41:14 10° NNE
IDEFIX/ARIANE 42P 3.7 23:37:16 10° NNE 23:42:04 36° E 23:44:56 21° SSE
SL-16 R/B 2.2 23:36:31 10° NNW 23:42:09 63° WSW 23:44:44 32° S
SL-19 R/B 3.4 23:40:21 10° NNE 23:43:19 85° ENE 23:43:19 85° ENE
Nadezhda 3 Rocket 4.4 23:38:27 10° NNW 23:44:26 48° W 23:47:09 30° SW
Cosmos 2237 Rocket 3.8 23:44:31 10° WNW 23:48:07 18° W 23:48:59 17° WSW
CZ-4C R/B 4.1 23:45:03 10° W 23:49:08 25° NNW 23:54:03 10° NNE
Cosmos 1538 Rocket 4.5 23:44:25 10° NNW 23:49:21 44° WSW 23:50:57 34° SSW
Cosmos 2218 Rocket 4.2 23:46:33 26° SSE 23:50:12 65° E 23:56:19 10° NNE
BREEZE-M DEB (TANK) 1.8 23:46:40 10° WNW 23:51:37 61° SSW 23:51:39 60° SSW
Cosmos 2082 3.6 23:49:30 33° SSW 23:52:10 87° WNW 23:57:50 10° NNE
GEOS 3 Rocket 4.3 23:48:20 10° NNE 23:53:18 49° NW 23:56:49 18° WSW
Cosmos 1869 3.2 23:50:02 10° N 23:53:43 70° ENE 23:55:00 38° SSE
Cosmos 2227 Rocket 3.4 23:50:16 17° WSW 23:53:59 35° NW 23:59:11 10° NNE
